Canadian, TX

6:29 AM CST on November 19, 2019 (GMT -0600)
Hemphill County

Weather History for KHHF - October, 2019

Change the Weather History Date:

Tuesday, October 22, 2019

  Actual Average (KPPA) Record (KPPA)
Temperature  
Mean Temperature 48 °F -  
Max Temperature 70 °F 69 °F 92 °F (1975)
Min Temperature 26 °F 44 °F 29 °F (1990)
Degree Days  
Heating Degree Days 17    
Moisture  
Dew Point 25 °F    
Average Humidity 49    
Maximum Humidity 90    
Minimum Humidity 14    
Precipitation  
Precipitation 0.00 in - - ()
Sea Level Pressure  
Sea Level Pressure 30.15 in    
Wind  
Wind Speed 4 mph ()    
Max Wind Speed 15 mph    
Max Gust Speed 22 mph    
Visibility 10.0 miles    
Events      
Averages and records for this station are not official NWS values.
T = Trace of Precipitation, MM = Missing Value Source: Averaged Metar Reports

Daily Weather History Graph

Daily Weather History Graph

Search for Another Location

Airport or City:

Astronomy

Oct. 22, 2019 Rise Set
Actual Time 7:54 AM CDT 6:57 PM CDT
Civil Twilight 7:28 AM CDT 7:23 PM CDT
Nautical Twilight 6:58 AM CDT 7:53 PM CDT
Astronomical Twilight 6:28 AM CDT 8:22 PM CDT
Moon 1:22 AM CDT (10/22) 3:53 PM CDT (10/22)
Length of Visible Light 11h 54m
Length of Day
11h 02m
Last Quarter, 37% of the Moon is Illuminated
Oct 22
Last Quarter
Oct 27
New
Nov 4
First Quarter
Nov 12
Full
Nov 19
Last Quarter

Hourly Weather History & Observations

Time (CDT) Temp. Windchill Dew Point Humidity Pressure Visibility Wind Dir Wind Speed Gust Speed Precip Events Conditions
12:15 AM 34.5 °F 30.4 °F 24.8 °F 68% 30.16 in 10.0 mi SW 4.6 mph - N/A   Clear
12:35 AM 32.5 °F 29.3 °F 25.0 °F 74% 30.16 in 10.0 mi WSW 3.5 mph - N/A   Clear
12:55 AM 33.4 °F - 26.1 °F 74% 30.17 in 10.0 mi Calm Calm - N/A   Clear
1:15 AM 34.2 °F - 25.7 °F 71% 30.17 in 10.0 mi Calm Calm - N/A   Clear
1:35 AM 30.4 °F 26.9 °F 24.4 °F 79% 30.17 in 10.0 mi SSW 3.5 mph - N/A   Clear
1:55 AM 31.5 °F 26.8 °F 24.8 °F 76% 30.17 in 10.0 mi WSW 4.6 mph - N/A   Clear
2:15 AM 31.1 °F 27.7 °F 26.2 °F 82% 30.17 in 10.0 mi SW 3.5 mph - N/A   Clear
2:35 AM 31.3 °F - 26.6 °F 83% 30.18 in 10.0 mi Calm Calm - N/A   Clear
2:55 AM 30.6 °F 27.1 °F 26.2 °F 84% 30.19 in 10.0 mi SW 3.5 mph - N/A   Clear
3:15 AM 31.1 °F - 26.4 °F 83% 30.19 in 10.0 mi Calm Calm - N/A   Clear
3:35 AM 32.0 °F - 26.4 °F 80% 30.19 in 10.0 mi Calm Calm - N/A   Clear
3:55 AM 31.8 °F - 26.6 °F 81% 30.19 in 10.0 mi Calm Calm - N/A   Clear
4:15 AM 31.6 °F - 26.6 °F 82% 30.19 in 10.0 mi Calm Calm - N/A   Clear
4:35 AM 31.8 °F - 26.4 °F 80% 30.20 in 10.0 mi Calm Calm - N/A   Clear
4:55 AM 32.4 °F - 26.2 °F 78% 30.20 in 10.0 mi Calm Calm - N/A   Clear
5:15 AM 28.4 °F - 25.3 °F 88% 30.19 in 10.0 mi Calm Calm - N/A   Clear
5:35 AM 27.5 °F 23.6 °F 24.6 °F 89% 30.20 in 10.0 mi SSW 3.5 mph - N/A   Clear
5:55 AM 30.2 °F - 25.5 °F 83% 30.19 in 10.0 mi Calm Calm - N/A   Clear
6:15 AM 27.5 °F - 24.6 °F 89% 30.21 in 10.0 mi Calm Calm - N/A   Clear
6:35 AM 26.6 °F 22.6 °F 23.9 °F 90% 30.21 in 10.0 mi WSW 3.5 mph - N/A   Clear
6:55 AM 27.3 °F - 24.4 °F 89% 30.22 in 10.0 mi Calm Calm - N/A   Clear
7:15 AM 28.0 °F 24.2 °F 24.4 °F 86% 30.21 in 10.0 mi SSW 3.5 mph - N/A   Clear
7:35 AM 27.1 °F - 24.3 °F 89% 30.22 in 10.0 mi Calm Calm - N/A   Clear
7:55 AM 30.0 °F - 25.9 °F 85% 30.23 in 10.0 mi Calm Calm - N/A   Clear
8:15 AM 30.4 °F - 25.7 °F 83% 30.23 in 10.0 mi Calm Calm - N/A   Clear
8:35 AM 29.8 °F - 26.4 °F 87% 30.24 in 10.0 mi Calm Calm - N/A   Clear
8:55 AM 32.4 °F - 28.8 °F 87% 30.25 in 10.0 mi Calm Calm - N/A   Clear
9:15 AM 35.1 °F - 29.8 °F 81% 30.26 in 10.0 mi Calm Calm - N/A   Clear
9:35 AM 40.1 °F - 31.3 °F 71% 30.26 in 10.0 mi Calm Calm - N/A   Clear
10:15 AM 48.6 °F - 29.8 °F 48% 30.26 in 10.0 mi North 3.5 mph - N/A   Clear
10:55 AM 55.0 °F - 28.6 °F 36% 30.26 in 10.0 mi Calm Calm - N/A   Clear
11:15 AM 59.9 °F - 25.0 °F 26% 30.25 in 10.0 mi West 4.6 mph - N/A   Clear
11:35 AM 61.2 °F - 25.0 °F 25% 30.25 in 10.0 mi WNW 6.9 mph - N/A   Clear
11:55 AM 62.4 °F - 24.6 °F 24% 30.25 in 10.0 mi NNW 8.1 mph - N/A   Clear
12:15 PM 63.3 °F - 25.2 °F 23% 30.24 in 10.0 mi WNW 4.6 mph - N/A   Clear
12:35 PM 64.0 °F - 24.6 °F 22% 30.23 in 10.0 mi WNW 5.8 mph - N/A   Clear
12:55 PM 65.3 °F - 23.9 °F 21% 30.22 in 10.0 mi WNW 9.2 mph 17.3 mph N/A   Clear
1:15 PM 65.8 °F - 23.4 °F 20% 30.21 in 10.0 mi WSW 3.5 mph - N/A   Clear
1:35 PM 66.2 °F - 23.4 °F 20% 30.20 in 10.0 mi West 8.1 mph - N/A   Clear
1:55 PM 67.6 °F - 21.9 °F 18% 30.19 in 10.0 mi West 10.4 mph - N/A   Clear
2:15 PM 68.5 °F - 21.0 °F 16% 30.18 in 10.0 mi WSW 9.2 mph 16.1 mph N/A   Clear
2:35 PM 68.9 °F - 20.1 °F 16% 30.16 in 10.0 mi WSW 13.8 mph - N/A   Clear
2:55 PM 68.9 °F - 19.8 °F 15% 30.15 in 10.0 mi WSW 9.2 mph - N/A   Clear
3:15 PM 69.1 °F - 19.6 °F 15% 30.13 in 10.0 mi WSW 8.1 mph - N/A   Clear
3:35 PM 70.0 °F - 19.9 °F 15% 30.12 in 10.0 mi SW 9.2 mph 19.6 mph N/A   Clear
3:55 PM 70.2 °F - 19.8 °F 15% 30.11 in 10.0 mi WSW 15.0 mph 18.4 mph N/A   Clear
4:15 PM 70.2 °F - 19.6 °F 15% 30.10 in 10.0 mi WSW 12.7 mph 21.9 mph N/A   Clear
4:35 PM 70.7 °F - 19.6 °F 14% 30.10 in 10.0 mi West 12.7 mph 17.3 mph N/A   Clear
4:55 PM 70.7 °F - 19.8 °F 15% 30.09 in 10.0 mi WSW 13.8 mph 18.4 mph N/A   Clear
5:15 PM 70.3 °F - 19.0 °F 14% 30.08 in 10.0 mi WSW 12.7 mph 17.3 mph N/A   Clear
5:35 PM 70.0 °F - 19.8 °F 15% 30.06 in 10.0 mi SW 13.8 mph - N/A   Clear
5:55 PM 69.1 °F - 20.3 °F 16% 30.05 in 10.0 mi SW 12.7 mph 17.3 mph N/A   Clear
6:15 PM 68.2 °F - 21.0 °F 17% 30.05 in 10.0 mi SW 9.2 mph - N/A   Clear
6:35 PM 66.0 °F - 23.4 °F 20% 30.05 in 10.0 mi SSW 9.2 mph - N/A   Clear
6:55 PM 62.1 °F - 25.2 °F 25% 30.04 in 10.0 mi South 9.2 mph - N/A   Clear
7:15 PM 59.5 °F - 25.0 °F 27% 30.04 in 10.0 mi South 8.1 mph - N/A   Clear
7:35 PM 57.9 °F - 25.3 °F 29% 30.04 in 10.0 mi South 6.9 mph - N/A   Clear
7:55 PM 58.6 °F - 24.8 °F 27% 30.03 in 10.0 mi South 8.1 mph - N/A   Clear
8:15 PM 58.6 °F - 24.8 °F 27% 30.04 in 10.0 mi South 5.8 mph - N/A   Clear
8:35 PM 58.1 °F - 25.2 °F 28% 30.03 in 10.0 mi South 9.2 mph - N/A   Clear
8:55 PM 48.9 °F - 26.6 °F 42% 30.03 in 10.0 mi WSW 5.8 mph - N/A   Clear
9:15 PM 48.4 °F - 27.1 °F 44% 30.03 in 10.0 mi WSW 6.9 mph - N/A   Clear
9:35 PM 50.4 °F - 27.1 °F 41% 30.03 in 10.0 mi WSW 5.8 mph - N/A   Clear
9:55 PM 50.0 °F - 27.3 °F 41% 30.03 in 10.0 mi WSW 6.9 mph - N/A   Clear
10:15 PM 49.5 °F - 27.3 °F 42% 30.02 in 10.0 mi Calm Calm - N/A   Clear
10:35 PM 50.4 °F - 27.1 °F 41% 30.02 in 10.0 mi Calm Calm - N/A   Clear
10:55 PM 49.8 °F - 27.5 °F 42% 30.02 in 10.0 mi Calm Calm - N/A   Clear
11:15 PM 47.7 °F - 27.9 °F 46% 30.01 in 10.0 mi WSW 6.9 mph - N/A   Clear
11:35 PM 48.2 °F - 28.2 °F 46% 29.99 in 10.0 mi WSW 4.6 mph - N/A   Clear
11:55 PM 54.0 °F - 28.0 °F 37% 29.98 in 10.0 mi South 12.7 mph 16.1 mph N/A   Clear